Temp
4 3 3 3 3 3 3 3 3 3 2 2 2 2 2 2 2 2 3 3 3 3 3 3 3 3 2 2 2 2 2 3 3 3 3 3 4 4 5 5 5 5 6 6 6 6 7 7 7 7 7 7
3 3 3 3 3 3 3 3 2 2 2 2 2 2 2 2 2 2 2 2 2 3 3 3 3 3 3 2 3 3 3 3 3 3 3 3 3 4 4 5 5 5 5 5 6 6 6 6 7 7 7 7
3 3 3 3 3 3 3 3 3 3 3 2 2 2 2 2 2 2 2 2 2 2 2 2 3 2 2 2 3 3 3 3 3 3 3 3 3 4 4 4 4 4 5 5 5 6 6 6 6 6 7 7
3 4 4 4 3 3 3 3 3 3 3 3 3 3 2 2 2 2 2 2 2 2 2 2 2 2 2 2 2 3 3 3 3 3 3 3 3 3 3 3 4 4 4 4 4 5 5 5 6 6 6 6
3 3 3 3 3 3 3 3 3 3 3 3 3 3 2 2 2 2 2 2 2 2 2 2 2 2 2 2 2 2 2 2 2 3 3 3 3 3 3 3 3 3 3 4 4 4 4 5 5 5 6 6
3 3 3 2 2 2 2 2 3 3 3 2 3 2 2 2 2 2 2 2 2 2 2 2 2 2 2 2 2 2 2 2 2 2 2 2 3 3 3 3 3 3 3 3 3 4 4 4 4 5 5 5
3 3 3 2 2 2 2 2 2 2 2 2 2 2 2 2 1 1 1 1 1 1 1 1 1 1 1 1 1 1 1 2 2 2 2 2 2 2 3 3 3 3 3 3 3 3 3 4 4 4 4 5
3 3 3 2 2 2 2 2 2 2 2 2 1 1 1 1 1 1 1 1 1 1 1 1 1 0 0 0 1 1 1 1 1 1 1 2 2 2 2 3 3 3 3 3 3 3 3 3 4 4 4 4
2 2 2 2 2 2 2 2 2 1 1 1 1 1 1 0 0 0 0 0 0 0 0 1 1 1 1 0 0 0 1 1 1 1 1 1 1 2 2 2 2 3 3 3 3 3 3 3 4 4 4 4
2 2 2 2 1 1 1 1 1 1 1 1 1 0 0 0 -0 -0 -0 -0 0 0 0 0 0 0 0 0 1 1 1 1 1 1 1 1 1 1 1 2 2 2 2 3 3 3 3 3 3 4 4 4
1 1 1 1 1 1 1 0 0 0 0 0 0 0 0 -0 -0 -0 -0 -0 -0 -0 -0 -0 -0 0 0 0 0 0 1 1 1 1 1 1 1 1 1 1 1 2 2 2 2 3 3 3 3 3 3 3
1 1 1 1 0 0 0 0 0 0 0 0 -0 -0 -0 -0 -0 -0 -0 -0 -0 -0 -0 -0 -0 -0 0 0 0 0 0 1 1 1 1 1 1 1 1 1 1 1 2 2 2 2 2 2 2 3 3 3
1 0 0 0 0 -0 -0 -0 -0 -0 -0 -0 -0 -0 -1 -1 -1 -1 -1 -1 -1 -1 -0 -0 -0 -0 -0 0 0 0 0 0 1 1 1 1 1 1 1 1 1 1 1 1 2 2 2 2 2 2 2 3
0 0 0 -0 -0 -0 -0 -0 -0 -0 -1 -1 -1 -1 -1 -1 -1 -1 -1 -1 -1 -1 -1 -0 -0 -0 -0 -0 0 0 0 0 0 1 1 1 1 1 1 1 1 1 1 1 1 1 2 2 2 2 2 2
-0 -0 -0 -0 -0 -0 -1 -1 -1 -1 -1 -1 -1 -1 -1 -1 -1 -1 -1 -1 -1 -1 -1 -0 -0 -0 -0 -0 -0 -0 0 0 0 0 0 1 1 1 1 1 1 1 1 1 1 1 1 1 2 2 2 2
-0 -1 -1 -1 -1 -1 -1 -1 -1 -1 -1 -1 -1 -1 -1 -1 -1 -1 -1 -1 -1 -1 -1 -1 -1 -1 -0 -0 -0 -0 -0 -0 -0 -0 -0 -0 0 0 0 0 0 0 0 0 0 0 0 1 1 1 1 2
-1 -1 -1 -1 -1 -1 -1 -1 -1 -1 -1 -1 -1 -1 -1 -1 -1 -1 -1 -1 -1 -1 -1 -1 -1 -1 -1 -1 -1 -1 -1 -1 -1 -1 -1 -0 -0 -0 -0 -0 -0 -0 -0 -0 -0 0 -0 0 0 0 1 1
-1 -1 -1 -1 -1 -1 -1 -1 -2 -2 -2 -2 -2 -2 -1 -2 -2 -1 -2 -1 -1 -1 -1 -1 -1 -1 -2 -2 -2 -2 -2 -1 -1 -1 -1 -1 -1 -1 -1 -1 -0 -0 -0 -0 -0 -0 -0 -0 -0 -0 0 0
-1 -1 -1 -2 -2 -2 -2 -2 -2 -2 -2 -2 -2 -2 -2 -2 -2 -2 -2 -2 -2 -3 -2 -2 -2 -2 -2 -2 -2 -2 -2 -2 -2 -2 -2 -2 -2 -1 -1 -1 -1 -1 -1 -0 -0 -0 -0 -0 -1 -1 -1 -0
-2 -2 -2 -2 -2 -2 -2 -2 -2 -2 -2 -2 -2 -2 -2 -2 -2 -3 -3 -3 -3 -3 -3 -3 -3 -3 -3 -3 -3 -3 -3 -3 -3 -3 -3 -3 -3 -3 -2 -2 -2 -2 -1 -1 -1 -1 -0 -1 -1 -1 -1 -1
-2 -2 -2 -2 -2 -2 -2 -2 -2 -2 -2 -2 -2 -3 -3 -3 -3 -3 -3 -3 -3 -4 -4 -4 -4 -4 -4 -4 -4 -4 -4 -4 -4 -4 -4 -4 -4 -4 -4 -3 -3 -3 -3 -2 -1 -1 -1 -1 -1 -1 -1 -2
-2 -2 -2 -2 -2 -2 -3 -3 -3 -3 -3 -3 -3 -3 -3 -4 -4 -4 -4 -4 -4 -4 -4 -4 -4 -4 -4 -4 -5 -5 -5 -5 -5 -5 -5 -5 -5 -5 -5 -5 -5 -4 -4 -3 -3 -2 -2 -2 -2 -2 -2 -2
-2 -2 -2 -3 -3 -3 -3 -3 -4 -4 -4 -4 -4 -4 -4 -4 -4 -4 -4 -4 -5 -5 -5 -5 -5 -5 -5 -5 -5 -5 -5 -6 -6 -6 -6 -6 -6 -6 -6 -6 -6 -6 -5 -5 -4 -4 -3 -3 -3 -3 -3 -3
-2 -2 -3 -3 -3 -3 -4 -4 -4 -4 -4 -4 -4 -5 -5 -5 -5 -5 -5 -5 -5 -5 -5 -5 -5 -6 -6 -6 -6 -6 -6 -6 -6 -6 -6 -6 -6 -6 -6 -7 -7 -7 -7 -6 -5 -5 -5 -4 -4 -4 -4 -4
-3 -3 -3 -3 -3 -4 -4 -4 -4 -4 -5 -5 -5 -5 -5 -5 -5 -5 -6 -6 -6 -6 -6 -6 -6 -6 -6 -6 -6 -7 -7 -7 -7 -7 -7 -7 -7 -7 -7 -7 -8 -8 -8 -7 -6 -5 -5 -4 -5 -5 -4 -5
-3 -3 -3 -3 -4 -4 -4 -4 -5 -5 -5 -5 -6 -6 -6 -6 -6 -6 -6 -6 -7 -7 -7 -7 -7 -7 -7 -7 -7 -7 -7 -7 -8 -8 -8 -8 -8 -8 -8 -8 -8 -9 -9 -8 -8 -8 -6 -5 -5 -6 -6 -6
-3 -3 -3 -4 -4 -4 -5 -5 -5 -6 -6 -6 -7 -7 -7 -7 -7 -7 -7 -7 -7 -7 -7 -7 -7 -7 -7 -7 -8 -8 -8 -8 -8 -8 -8 -9 -8 -8 -9 -9 -9 -9 -10 -10 -10 -10 -9 -8 -8 -7 -7 -7
-3 -3 -4 -4 -5 -5 -5 -6 -6 -6 -6 -7 -7 -7 -7 -7 -7 -7 -7 -8 -8 -8 -8 -8 -8 -8 -8 -8 -8 -8 -8 -9 -9 -9 -9 -9 -9 -9 -9 -9 -9 -10 -11 -11 -11 -11 -11 -11 -10 -10 -9 -8
-3 -4 -4 -4 -5 -5 -5 -6 -6 -6 -7 -7 -8 -8 -8 -8 -8 -8 -8 -8 -8 -9 -9 -9 -9 -9 -9 -9 -9 -9 -9 -9 -9 -10 -10 -10 -10 -10 -11 -10 -10 -11 -11 -11 -12 -13 -13 -13 -13 -13 -12 -10
-3 -3 -4 -4 -5 -5 -6 -6 -6 -7 -7 -7 -8 -8 -8 -8 -8 -9 -9 -9 -9 -9 -9 -9 -9 -10 -10 -10 -10 -10 -10 -10 -10 -10 -11 -11 -11 -11 -12 -12 -11 -11 -11 -12 -13 -13 -14 -14 -15 -15 -14 -14
-3 -4 -4 -5 -5 -5 -6 -6 -6 -7 -7 -7 -8 -8 -8 -9 -9 -9 -9 -9 -9 -9 -9 -10 -10 -10 -10 -11 -11 -11 -11 -11 -11 -11 -11 -11 -12 -12 -12 -13 -12 -13 -12 -12 -13 -13 -14 -14 -15 -15 -15 -16
Height
1576 1576 1576 1576 1576 1576 1576 1575 1576 1576 1576 1576 1576 1576 1576 1576 1576 1576 1576 1576 1575 1575 1575 1575 1574 1574 1573 1573 1573 1572 1571 1571 1571 1570 1569 1568 1567 1567 1566 1566 1566 1565 1564 1563 1563 1562 1561 1561 1560 1560 1559 1558
1576 1576 1576 1576 1576 1576 1576 1576 1576 1576 1576 1576 1576 1576 1576 1576 1575 1575 1575 1575 1575 1574 1574 1574 1574 1574 1573 1573 1572 1572 1571 1571 1570 1570 1569 1568 1567 1566 1565 1565 1565 1564 1564 1563 1562 1562 1561 1560 1560 1559 1559 1558
1577 1577 1577 1577 1577 1577 1577 1577 1577 1577 1577 1576 1576 1576 1576 1575 1575 1575 1575 1574 1574 1573 1573 1573 1573 1573 1572 1572 1571 1571 1571 1570 1570 1569 1569 1568 1567 1566 1565 1565 1565 1564 1563 1563 1562 1561 1561 1560 1559 1558 1558 1557
1578 1578 1578 1578 1578 1578 1578 1578 1578 1577 1577 1577 1576 1576 1576 1575 1575 1575 1574 1574 1574 1573 1572 1572 1572 1571 1571 1571 1570 1570 1570 1569 1569 1569 1568 1567 1566 1566 1565 1564 1564 1564 1563 1562 1561 1561 1560 1559 1559 1558 1557 1556
1578 1578 1578 1578 1578 1578 1577 1577 1577 1577 1576 1576 1576 1575 1575 1575 1575 1574 1574 1574 1573 1573 1572 1572 1571 1571 1570 1570 1569 1569 1568 1568 1568 1567 1567 1566 1566 1565 1564 1563 1563 1563 1562 1561 1561 1560 1559 1559 1558 1557 1556 1555
1577 1577 1577 1576 1576 1576 1576 1576 1575 1575 1575 1575 1574 1574 1574 1574 1573 1573 1573 1572 1572 1572 1572 1571 1571 1570 1570 1569 1569 1568 1568 1567 1566 1566 1565 1565 1564 1564 1563 1562 1562 1561 1561 1561 1560 1559 1558 1558 1557 1556 1556 1555
1576 1576 1575 1575 1575 1575 1575 1574 1574 1574 1574 1574 1573 1573 1573 1572 1572 1572 1571 1571 1571 1570 1570 1570 1569 1569 1569 1568 1568 1567 1567 1566 1566 1565 1564 1563 1563 1562 1562 1561 1560 1560 1559 1559 1559 1558 1557 1556 1556 1555 1554 1554
1575 1575 1575 1575 1575 1574 1574 1574 1574 1573 1573 1572 1572 1572 1572 1572 1571 1571 1571 1570 1570 1569 1569 1569 1568 1568 1567 1567 1567 1566 1566 1565 1565 1564 1564 1563 1562 1561 1560 1559 1559 1558 1558 1557 1557 1556 1556 1555 1554 1554 1553 1552
1575 1575 1575 1575 1574 1574 1574 1573 1573 1572 1572 1572 1571 1571 1571 1571 1570 1570 1570 1569 1569 1568 1568 1568 1567 1567 1566 1566 1565 1565 1564 1564 1563 1563 1562 1561 1561 1560 1559 1558 1557 1556 1556 1555 1555 1555 1554 1553 1553 1552 1552 1551
1575 1575 1574 1574 1574 1574 1573 1573 1573 1572 1572 1571 1571 1570 1570 1570 1569 1569 1568 1568 1568 1567 1567 1566 1566 1565 1565 1564 1563 1563 1562 1562 1561 1561 1560 1559 1559 1558 1558 1557 1556 1555 1554 1553 1552 1552 1552 1551 1551 1550 1550 1549
1574 1574 1574 1574 1573 1573 1573 1572 1572 1571 1571 1570 1570 1569 1569 1569 1568 1568 1567 1567 1566 1566 1565 1565 1564 1564 1563 1563 1562 1561 1560 1560 1559 1558 1558 1557 1557 1556 1556 1555 1555 1554 1553 1552 1551 1550 1550 1549 1548 1548 1547 1547
1574 1574 1573 1573 1573 1572 1572 1572 1571 1571 1570 1569 1569 1568 1568 1567 1567 1567 1566 1566 1565 1565 1564 1564 1563 1562 1562 1561 1560 1559 1558 1558 1557 1557 1556 1555 1555 1554 1554 1553 1553 1552 1551 1551 1550 1548 1548 1547 1546 1546 1545 1545
1573 1573 1573 1572 1572 1572 1571 1571 1570 1569 1569 1568 1568 1567 1566 1566 1566 1565 1565 1564 1564 1563 1563 1562 1562 1561 1560 1559 1559 1558 1557 1556 1555 1555 1554 1553 1552 1552 1551 1551 1550 1550 1549 1549 1548 1547 1546 1545 1544 1543 1543 1542
1573 1573 1572 1572 1571 1571 1570 1570 1569 1568 1567 1567 1566 1565 1565 1565 1564 1564 1563 1562 1562 1561 1561 1560 1560 1559 1558 1557 1557 1556 1555 1554 1553 1552 1552 1551 1550 1549 1548 1548 1547 1546 1546 1546 1545 1545 1544 1543 1542 1541 1541 1540
1572 1572 1571 1571 1570 1570 1569 1568 1568 1567 1566 1566 1565 1564 1563 1563 1562 1562 1561 1560 1559 1559 1558 1557 1557 1556 1555 1555 1554 1553 1552 1551 1551 1550 1549 1548 1547 1546 1545 1545 1544 1543 1542 1542 1542 1541 1541 1541 1540 1539 1538 1537
1571 1571 1570 1570 1569 1568 1568 1567 1566 1566 1565 1564 1563 1563 1562 1561 1560 1560 1558 1558 1557 1556 1555 1554 1554 1553 1552 1551 1551 1550 1549 1548 1548 1547 1546 1545 1544 1543 1542 1542 1541 1540 1539 1539 1539 1538 1537 1537 1537 1537 1536 1535
1570 1569 1569 1568 1568 1567 1566 1566 1565 1564 1563 1562 1562 1561 1560 1559 1558 1557 1556 1555 1554 1553 1552 1551 1550 1549 1548 1548 1547 1546 1546 1545 1544 1543 1543 1542 1542 1541 1540 1539 1538 1537 1536 1535 1535 1535 1534 1534 1533 1533 1533 1532
1568 1568 1567 1567 1566 1565 1565 1564 1563 1562 1562 1561 1560 1559 1558 1557 1556 1554 1554 1552 1551 1550 1549 1548 1547 1546 1545 1544 1543 1543 1542 1541 1540 1540 1539 1538 1538 1537 1536 1535 1534 1533 1532 1532 1531 1531 1531 1530 1530 1530 1529 1529
1567 1566 1566 1565 1565 1564 1563 1562 1561 1560 1559 1558 1557 1556 1555 1554 1553 1552 1550 1549 1548 1547 1546 1545 1544 1542 1541 1540 1539 1539 1538 1537 1536 1535 1535 1534 1533 1533 1532 1531 1531 1530 1529 1528 1527 1527 1526 1526 1526 1525 1525 1525
1566 1565 1565 1564 1563 1563 1562 1560 1560 1558 1557 1556 1555 1554 1553 1551 1550 1549 1547 1546 1545 1544 1543 1542 1540 1539 1538 1537 1536 1535 1534 1533 1532 1531 1531 1530 1529 1528 1527 1527 1526 1525 1525 1524 1523 1523 1522 1522 1521 1521 1520 1521
1565 1565 1564 1563 1562 1561 1560 1559 1558 1557 1555 1554 1553 1551 1550 1549 1548 1546 1545 1543 1543 1541 1540 1539 1537 1536 1535 1534 1533 1532 1531 1530 1529 1528 1527 1526 1525 1524 1523 1522 1521 1520 1520 1519 1519 1519 1518 1517 1517 1516 1516 1516
1564 1563 1562 1561 1561 1559 1559 1558 1556 1555 1554 1553 1551 1550 1548 1547 1546 1544 1542 1541 1540 1539 1537 1535 1534 1533 1532 1531 1530 1529 1528 1527 1526 1525 1523 1522 1522 1521 1520 1518 1517 1516 1515 1514 1513 1514 1514 1513 1513 1512 1511 1511
1561 1561 1560 1559 1558 1557 1556 1555 1554 1552 1551 1550 1548 1547 1546 1545 1543 1542 1540 1539 1538 1536 1534 1533 1532 1531 1529 1528 1527 1527 1526 1525 1523 1522 1521 1519 1519 1518 1517 1516 1514 1512 1511 1510 1509 1508 1508 1509 1508 1508 1508 1507
1559 1558 1557 1557 1555 1554 1553 1552 1550 1549 1547 1546 1544 1543 1542 1541 1540 1538 1537 1536 1535 1534 1532 1531 1529 1528 1527 1526 1525 1524 1523 1521 1520 1519 1517 1516 1515 1514 1514 1513 1512 1510 1508 1506 1505 1505 1504 1504 1504 1504 1504 1503
1557 1557 1555 1555 1554 1552 1551 1549 1548 1546 1544 1543 1542 1540 1539 1538 1537 1535 1534 1533 1532 1531 1529 1528 1527 1526 1525 1524 1523 1521 1520 1519 1517 1516 1515 1513 1513 1511 1510 1510 1509 1507 1505 1502 1500 1499 1499 1500 1500 1500 1500 1499
1555 1554 1553 1552 1551 1550 1549 1547 1546 1545 1543 1541 1540 1538 1537 1536 1534 1533 1532 1531 1529 1528 1526 1525 1524 1523 1522 1521 1520 1519 1518 1516 1515 1513 1512 1511 1510 1509 1508 1507 1506 1505 1503 1500 1498 1495 1493 1493 1495 1495 1496 1495
1552 1551 1550 1549 1548 1547 1546 1545 1543 1542 1541 1539 1538 1537 1535 1534 1533 1532 1530 1529 1527 1526 1524 1522 1521 1520 1519 1518 1517 1516 1515 1514 1513 1511 1510 1509 1507 1506 1506 1505 1505 1504 1502 1500 1498 1496 1493 1491 1490 1490 1490 1491
1549 1548 1547 1546 1545 1544 1543 1542 1541 1539 1538 1537 1536 1535 1533 1532 1531 1530 1528 1527 1525 1524 1522 1520 1519 1518 1517 1516 1515 1514 1512 1511 1510 1509 1507 1506 1505 1504 1502 1502 1502 1502 1502 1500 1497 1496 1493 1492 1489 1487 1485 1485
1546 1545 1544 1543 1542 1541 1540 1539 1538 1536 1535 1534 1533 1532 1530 1529 1527 1526 1525 1524 1523 1521 1520 1518 1516 1515 1514 1514 1513 1512 1510 1509 1507 1506 1505 1504 1502 1501 1500 1499 1499 1499 1500 1499 1498 1496 1494 1493 1490 1487 1485 1482
1542 1542 1541 1540 1539 1538 1537 1536 1535 1533 1532 1531 1530 1529 1527 1526 1524 1523 1522 1521 1520 1518 1517 1515 1513 1513 1512 1511 1511 1509 1508 1507 1505 1504 1503 1501 1500 1499 1498 1497 1496 1496 1497 1497 1497 1496 1494 1494 1492 1487 1485 1483
1539 1538 1538 1536 1536 1535 1533 1533 1532 1531 1530 1529 1528 1526 1525 1523 1521 1520 1519 1518 1517 1516 1514 1513 1511 1510 1509 1508 1508 1506 1505 1504 1503 1502 1500 1499 1498 1497 1496 1495 1494 1493 1493 1494 1494 1494 1493 1492 1492 1489 1486 1485
Wind_Speed
1 0 0 1 3 5 5 7 8 10 11 12 12 12 12 12 12 13 14 14 15 16 15 14 14 15 15 15 15 16 17 18 18 19 19 19 20 20 19 18 17 18 18 19 19 19 18 17 17 16 16 15
1 2 2 4 6 7 8 9 11 12 13 13 13 13 13 13 13 14 14 15 15 16 16 15 15 15 15 15 16 17 18 18 18 19 19 19 20 21 21 19 18 17 18 18 19 20 20 19 19 18 17 16
5 6 7 8 9 9 11 12 13 14 15 15 15 15 15 15 15 15 15 16 16 17 17 17 17 16 16 16 17 18 18 19 19 19 19 19 20 21 22 22 19 18 18 18 18 19 20 20 20 20 20 19
8 9 9 10 11 12 13 14 15 15 16 15 16 15 15 15 15 16 17 17 18 18 18 19 19 19 19 19 20 20 20 20 20 20 20 20 21 22 22 23 22 20 20 19 19 19 19 20 20 21 21 21
8 8 9 10 11 12 14 15 15 16 16 16 16 15 15 15 15 16 17 17 18 18 19 19 20 20 21 22 22 23 23 23 22 22 21 21 21 22 22 22 22 21 21 20 20 20 19 19 19 20 20 21
8 8 9 11 12 13 14 16 17 18 18 18 17 17 17 17 17 17 17 18 18 19 19 20 21 22 22 23 23 24 24 24 24 23 23 23 23 22 23 23 23 22 21 21 21 21 21 20 20 19 20 20
8 10 11 12 13 14 15 16 18 19 19 19 18 18 18 18 18 18 18 19 19 19 20 20 21 22 23 23 24 23 23 23 23 24 24 24 24 24 24 24 24 24 23 22 22 21 22 22 21 21 20 20
9 10 11 12 13 14 15 16 17 18 18 18 17 17 17 17 18 18 18 18 19 19 20 20 21 22 22 22 23 23 23 24 24 24 24 24 25 25 26 26 26 26 25 24 23 23 23 23 23 23 22 22
9 9 11 11 12 13 14 15 16 17 17 17 17 17 17 17 17 17 18 18 19 19 20 20 21 21 22 23 23 24 24 24 25 25 25 25 25 26 26 27 27 28 27 27 26 25 25 24 24 24 24 23
8 9 10 10 11 11 12 14 15 15 16 16 17 17 17 17 17 17 18 18 19 19 20 20 21 21 22 23 24 25 25 26 26 26 26 26 26 26 26 27 27 28 29 29 29 28 27 27 26 26 25 25
8 9 9 10 10 11 12 13 14 15 15 16 17 17 18 18 18 19 19 19 19 19 20 20 21 22 23 24 24 25 26 27 27 27 27 27 27 27 27 27 27 27 28 29 30 30 29 29 28 28 27 27
9 9 10 10 11 12 13 14 15 16 16 17 18 18 19 19 19 19 19 19 19 19 20 21 22 23 24 25 25 26 27 28 28 29 29 29 29 29 29 28 28 28 28 28 29 29 30 29 29 29 28 28
9 10 11 12 13 14 14 15 16 17 18 18 19 19 20 20 20 19 19 19 20 21 22 23 24 24 26 27 27 28 29 30 30 31 31 32 32 32 32 31 31 31 30 29 29 29 30 30 30 30 29 29
11 12 13 14 15 15 16 17 18 19 19 20 20 20 20 20 21 21 21 22 23 23 25 25 26 27 28 28 29 30 31 32 33 33 34 34 35 35 35 35 34 34 33 32 31 31 30 30 31 31 30 30
12 13 14 15 16 17 18 19 19 20 21 21 22 22 22 23 23 24 24 25 26 27 28 28 29 30 30 31 32 32 33 34 34 35 36 37 37 38 38 38 38 38 37 36 35 34 33 32 32 32 32 32
12 14 15 16 17 18 18 19 20 20 21 22 23 23 24 25 26 28 29 30 31 31 32 32 32 33 33 34 34 35 35 36 36 37 37 38 38 39 39 40 40 40 40 39 38 37 36 35 34 33 33 33
14 15 16 16 17 18 19 19 20 21 22 23 24 26 27 28 29 30 32 33 34 35 36 36 36 37 37 37 37 37 38 38 39 39 39 40 40 40 41 41 41 41 42 41 41 39 38 37 36 35 34 34
16 16 17 17 18 18 19 20 22 23 25 26 27 29 30 31 32 32 33 34 35 36 37 38 39 39 39 39 40 39 40 40 40 41 42 42 42 42 43 43 43 43 44 43 43 42 41 40 38 37 36 35
15 16 16 17 19 20 21 23 24 26 27 28 29 30 32 32 33 34 34 35 35 36 36 37 38 39 40 40 40 40 40 40 40 41 41 42 43 43 43 44 44 44 45 45 45 45 44 43 41 39 38 37
15 16 18 19 20 21 22 24 25 26 27 29 30 31 32 33 33 34 35 35 35 36 36 37 37 37 38 38 39 39 39 39 39 40 40 40 41 42 43 44 44 44 45 46 46 46 46 45 44 42 41 38
16 17 18 19 20 20 22 23 24 25 27 28 29 30 31 32 32 33 34 34 34 34 35 35 35 35 35 36 36 36 37 37 37 38 38 38 38 39 41 42 43 44 44 45 46 46 46 46 45 44 42 40
16 16 17 18 19 21 22 22 23 24 25 25 26 27 28 28 29 30 31 31 31 32 32 32 32 33 33 33 33 33 34 34 34 35 35 36 36 36 37 39 40 41 43 44 45 46 46 45 45 45 44 41
16 17 19 20 21 22 22 22 23 23 24 24 25 25 25 26 26 27 28 28 28 29 29 30 30 31 31 32 32 32 32 32 32 32 33 34 34 34 34 35 36 38 40 42 43 44 44 44 44 43 41 40
18 20 21 22 22 22 23 23 24 25 25 26 26 27 27 27 27 27 28 28 28 28 28 28 29 29 30 30 31 31 31 31 31 31 32 32 32 33 33 33 33 34 37 40 41 41 41 41 40 40 38 36
21 22 23 23 22 22 23 24 24 25 26 26 27 28 28 28 28 28 28 28 28 29 29 29 29 29 29 30 30 30 31 31 31 31 31 31 31 32 32 32 31 32 34 37 39 40 41 39 37 35 32 30
24 24 23 23 22 22 23 24 24 24 25 26 26 27 28 28 28 28 28 28 29 29 29 29 29 30 30 30 30 30 30 30 30 31 31 31 31 31 31 31 30 30 31 33 35 37 40 40 35 29 26 26
26 25 23 22 22 22 23 24 24 25 25 26 26 27 28 28 27 27 27 28 28 28 29 30 30 30 31 31 31 31 31 31 31 31 31 31 32 31 31 30 29 28 27 29 31 30 30 33 33 30 27 24
25 23 22 22 22 23 23 24 25 25 25 26 26 27 27 27 27 26 26 27 27 28 29 30 30 30 30 31 31 31 32 32 31 31 31 30 31 31 31 31 29 26 24 25 25 24 23 25 24 24 26 28
23 22 22 23 23 24 25 25 26 26 25 26 27 27 28 28 28 27 27 27 27 28 28 29 29 29 30 30 30 30 31 32 31 31 30 30 30 29 29 30 30 27 24 22 19 19 20 17 15 18 26 33
23 23 23 24 24 25 26 26 26 26 26 27 28 28 29 29 29 29 29 29 29 29 29 30 30 30 29 29 29 29 30 30 30 31 30 30 29 28 27 28 29 27 25 23 18 17 17 13 14 23 28 28
24 24 25 25 26 26 27 27 27 27 28 28 28 29 29 29 29 29 29 30 30 30 30 30 31 31 30 30 30 30 30 29 29 30 29 29 29 28 28 27 27 27 26 24 20 17 18 16 17 21 23 22
Wind_Direction
168 202 217 219 276 314 343 2 6 7 11 10 8 4 2 1 355 353 352 349 347 348 350 351 349 351 357 0 357 354 354 352 347 343 341 338 335 332 330 330 327 324 322 319 317 315 312 309 305 301 297 295
264 305 296 298 308 327 342 354 1 2 3 1 359 356 354 352 350 348 345 346 345 345 345 346 348 348 350 351 348 346 346 345 344 341 337 333 329 326 324 325 324 321 318 316 314 313 312 310 307 302 298 294
293 306 309 319 327 337 345 350 352 352 352 351 349 347 345 343 344 344 342 343 342 341 342 343 344 344 345 343 341 342 340 339 339 338 335 331 326 323 322 322 322 318 315 313 311 310 309 309 307 304 300 296
299 309 316 329 337 342 346 347 347 346 344 342 341 339 337 336 336 338 338 338 338 339 339 339 340 340 340 339 338 337 337 336 336 335 333 330 326 324 323 322 320 318 314 311 309 307 306 306 305 304 301 298
303 317 327 337 341 344 345 345 344 341 338 336 334 333 331 331 331 332 333 334 334 334 334 334 335 335 335 334 334 334 335 334 334 333 331 329 327 325 323 320 319 317 314 310 308 306 304 303 302 301 299 298
311 325 333 339 340 341 340 339 338 335 333 331 329 330 329 329 330 332 332 331 331 331 332 331 331 330 330 330 330 331 332 331 331 331 329 328 326 324 322 319 318 316 314 311 307 304 302 300 299 298 296 294
316 324 328 331 331 331 331 331 330 329 327 326 326 325 326 327 328 329 329 329 329 329 327 326 326 325 325 325 326 328 328 329 328 328 327 326 325 323 321 319 317 315 313 311 308 304 301 299 298 297 295 292
311 316 319 319 319 320 322 323 323 323 322 320 320 320 322 323 324 324 324 324 323 322 321 320 319 319 321 322 323 325 326 326 326 326 325 324 323 322 321 319 317 315 313 311 309 306 302 299 298 297 295 293
303 306 309 307 308 311 312 315 317 317 316 315 315 316 318 318 319 319 318 317 316 316 315 315 316 316 318 319 320 322 323 324 323 323 322 322 321 320 319 318 317 316 314 312 310 307 305 301 299 297 295 294
298 299 300 299 300 303 306 309 310 311 310 310 310 310 312 312 313 312 312 311 311 311 311 312 313 314 315 316 317 318 319 320 320 320 319 319 318 318 316 316 315 314 313 313 311 310 307 304 301 298 295 293
295 295 295 296 298 301 304 306 307 307 306 306 306 305 306 306 306 307 307 307 307 308 309 310 311 313 314 314 315 315 316 316 316 316 316 315 315 314 313 312 311 310 310 310 309 309 308 306 303 301 298 294
288 289 291 294 298 302 303 304 305 305 305 305 305 305 305 305 305 305 305 305 306 306 307 309 310 312 312 313 313 313 313 313 313 313 312 312 311 310 310 309 308 307 306 306 305 305 305 305 303 302 300 297
283 287 293 297 301 303 304 305 306 306 306 306 305 305 306 306 305 304 305 304 305 306 307 308 309 310 310 310 311 311 311 310 310 310 309 309 308 308 307 306 305 304 303 302 302 301 302 302 301 301 299 297
287 292 297 301 303 304 306 307 307 308 308 308 307 307 307 306 306 304 304 304 304 305 305 306 306 307 307 307 307 307 307 307 307 307 306 306 305 305 304 304 303 302 301 301 300 298 298 298 298 299 298 297
291 296 299 302 304 305 306 307 307 307 307 308 308 308 308 307 306 305 304 304 303 303 302 303 303 303 303 303 303 303 303 303 303 303 303 302 302 302 302 301 301 300 300 299 298 297 296 296 295 296 296 296
295 298 300 302 304 305 306 307 307 307 307 307 306 305 305 305 304 304 304 303 303 302 302 301 301 301 301 301 301 301 301 301 300 300 300 299 299 299 299 298 298 297 297 296 296 295 294 293 292 292 292 292
297 298 301 303 304 305 306 306 306 306 305 304 303 303 303 302 302 301 301 301 301 301 301 302 302 301 301 301 301 300 300 300 299 299 298 297 297 296 296 295 295 294 294 293 293 292 292 291 290 289 288 288
297 299 302 303 303 304 303 303 303 302 302 301 301 301 300 300 299 299 299 299 299 299 299 300 300 301 301 301 301 301 300 300 299 298 297 297 296 295 295 294 294 293 292 292 292 291 290 290 289 288 286 285
296 298 299 299 300 300 300 300 300 300 300 300 299 299 299 299 299 299 299 299 299 299 299 300 300 300 300 300 301 301 301 300 300 299 298 298 296 295 295 294 294 293 292 291 291 291 290 290 290 288 287 285
291 292 293 295 296 297 298 299 300 301 301 301 301 301 300 300 300 299 299 299 300 300 301 301 300 300 300 300 301 301 301 301 300 300 299 299 298 297 296 294 294 293 292 291 290 290 290 290 290 289 289 287
283 287 290 293 296 298 300 302 302 303 303 303 303 302 301 300 300 299 299 299 300 301 301 301 302 302 302 302 302 302 302 302 301 301 300 299 299 298 297 296 295 294 292 291 290 289 289 290 290 290 290 291
284 289 294 297 300 302 303 303 303 302 302 302 303 302 302 302 302 301 301 302 303 304 303 303 304 304 304 304 304 304 304 304 303 302 302 300 300 299 298 298 297 296 294 293 291 290 289 289 289 290 291 292
291 297 302 304 306 306 307 306 305 305 306 307 309 308 309 309 308 307 306 307 307 306 306 306 307 307 307 307 307 308 307 307 305 304 303 302 301 301 300 300 300 299 297 295 294 293 291 290 290 290 292 293
296 301 304 305 306 308 309 311 311 312 313 315 317 316 317 316 315 314 312 312 311 309 309 308 309 308 309 309 309 309 309 308 307 306 306 305 304 303 302 303 303 302 300 297 295 294 292 292 291 290 291 291
297 300 301 301 303 307 310 313 315 316 317 319 320 321 321 320 319 318 316 315 313 312 311 310 310 309 309 309 309 309 309 308 308 308 307 307 306 305 304 304 305 305 304 302 300 297 293 292 294 294 292 289
298 298 297 298 302 308 313 316 317 318 319 321 323 323 323 321 320 318 316 314 312 311 310 310 310 309 309 309 309 309 308 307 307 307 306 306 305 305 305 306 307 308 309 308 309 307 301 299 301 300 293 288
296 296 296 300 305 312 316 319 321 321 322 323 324 324 322 320 318 316 314 312 311 310 309 309 310 309 309 309 309 308 307 306 306 305 305 305 305 305 305 305 306 309 312 312 313 314 309 307 308 303 295 290
294 294 298 303 307 312 316 318 321 322 322 322 323 323 322 320 318 316 313 311 311 310 309 309 309 308 308 308 307 306 306 306 306 305 305 305 305 305 305 304 305 307 311 313 314 315 312 312 309 302 299 296
292 294 300 304 307 309 312 314 317 320 320 320 321 323 323 322 321 319 317 315 313 312 310 309 309 308 307 306 305 304 303 304 304 304 304 304 304 304 305 303 303 306 307 309 312 310 309 312 306 298 303 303
291 293 297 300 302 304 306 309 312 315 317 317 319 321 322 322 321 321 320 318 316 314 312 311 310 309 308 306 305 303 301 302 302 301 302 302 302 302 303 302 302 303 302 302 303 299 295 291 287 293 302 307
289 292 294 296 298 299 301 304 307 310 312 313 314 316 319 319 320 321 320 318 316 314 312 310 309 309 308 307 305 303 301 301 299 299 299 299 300 300 300 300 300 300 299 299 297 292 286 278 273 280 288 297